Weather History for KFET - April, 2014

Change the Weather History Date:

Tuesday, April 8, 2014

  Actual Average Record
Temperature  
Mean Temperature 45 °F -  
Max Temperature 58 °F 62 °F 83 °F (1988)
Min Temperature 32 °F 38 °F 17 °F (2007)
Degree Days  
Heating Degree Days 20    
Moisture  
Dew Point 31 °F    
Average Humidity 62    
Maximum Humidity 99    
Minimum Humidity 26    
Precipitation  
Precipitation 0.00 in - - ()
Sea Level Pressure  
Sea Level Pressure 30.05 in    
Wind  
Wind Speed 11 mph (NW)    
Max Wind Speed 20 mph    
Max Gust Speed 26 mph    
Visibility 10 miles    
Events      
Averages and records for this station are not official NWS values.
T = Trace of Precipitation, MM = Missing Value Source: NWS Daily Summary

Daily Weather History Graph

Daily Weather History Graph

Search for Another Location

Airport or City:

Trip Planner

Search our weather history database for the weather conditions in past years. The results will help you decide how hot, cold, wet, or windy it might be!

Date:

Astronomy

Apr. 08, 2014 Rise Set
Actual Time 6:57 AM CDT 7:58 PM CDT
Civil Twilight 6:29 AM CDT 8:27 PM CDT
Nautical Twilight 5:55 AM CDT 9:01 PM CDT
Astronomical Twilight 5:20 AM CDT 9:36 PM CDT
Moon 1:49 PM CDT (4/8) 3:15 AM CDT (4/8)
Length of Visible Light 13h 58m
Length of Day
13h 01m
Waxing Gibbous, 63% of the Moon is Illuminated
Apr 8
Waxing Gibbous
Apr 15
Full
Apr 22
Last Quarter
Apr 29
New
May 6
First Quarter

Hourly Weather History & Observations

Time (CDT) Temp. Windchill Dew Point Humidity Pressure Visibility Wind Dir Wind Speed Gust Speed Precip Events Conditions
12:15 AM 48.4 °F - 34.7 °F 59% 29.96 in 10.0 mi NNW 17.3 mph 21.9 mph N/A   Clear
12:35 AM 47.3 °F - 35.4 °F 63% 29.96 in 10.0 mi NNW 12.7 mph 17.3 mph N/A   Scattered Clouds
1:15 AM 46.4 °F 41.5 °F 36.1 °F 67% 29.96 in 10.0 mi NW 10.4 mph - N/A   Scattered Clouds
1:35 AM 45.7 °F 39.8 °F 35.8 °F 68% 29.96 in 10.0 mi NW 12.7 mph - N/A   Scattered Clouds
1:55 AM 46.0 °F 39.3 °F 36.5 °F 69% 29.97 in 10.0 mi NW 16.1 mph 20.7 mph N/A   Scattered Clouds
2:15 AM 45.5 °F 39.9 °F 36.0 °F 69% 29.96 in 10.0 mi NW 11.5 mph - N/A   Clear
2:35 AM 43.3 °F 38.1 °F 35.6 °F 74% 29.96 in 10.0 mi NW 9.2 mph - N/A   Clear
2:55 AM 41.7 °F 36.7 °F 35.2 °F 78% 29.96 in 10.0 mi WNW 8.1 mph - N/A   Clear
3:15 AM 39.6 °F 34.0 °F 34.7 °F 83% 29.96 in 10.0 mi WNW 8.1 mph - N/A   Clear
3:35 AM 38.3 °F 31.9 °F 34.0 °F 84% 29.96 in 10.0 mi WNW 9.2 mph - N/A   Clear
3:55 AM 36.7 °F 31.2 °F 32.9 °F 86% 29.96 in 10.0 mi West 6.9 mph - N/A   Clear
4:15 AM 36.5 °F 30.3 °F 33.4 °F 89% 29.97 in 10.0 mi West 8.1 mph - N/A   Clear
4:35 AM 36.5 °F 30.3 °F 33.4 °F 89% 29.97 in 10.0 mi West 8.1 mph - N/A   Clear
4:55 AM 36.5 °F 29.7 °F 33.4 °F 89% 29.97 in 10.0 mi West 9.2 mph - N/A   Clear
5:15 AM 35.4 °F 29.0 °F 32.9 °F 91% 29.98 in 10.0 mi West 8.1 mph - N/A   Clear
5:35 AM 34.0 °F 28.0 °F 32.0 °F 92% 29.99 in 10.0 mi West 6.9 mph - N/A   Clear
5:55 AM 33.1 °F 27.7 °F 31.8 °F 95% 29.99 in 10.0 mi WNW 5.8 mph - N/A   Clear
6:15 AM 32.0 °F 25.6 °F 31.3 °F 97% 30.00 in 10.0 mi West 6.9 mph - N/A   Clear
6:35 AM 32.0 °F 27.5 °F 31.6 °F 99% 30.01 in 10.0 mi WNW 4.6 mph - N/A   Clear
6:55 AM 32.0 °F 24.8 °F 31.1 °F 96% 30.01 in 10.0 mi West 8.1 mph - N/A   Clear
7:15 AM 32.9 °F 27.5 °F 32.0 °F 96% 30.02 in 10.0 mi West 5.8 mph - N/A   Clear
7:35 AM 33.6 °F 27.5 °F 32.5 °F 96% 30.03 in 10.0 mi WNW 6.9 mph - N/A   Clear
7:55 AM 37.6 °F 30.5 °F 35.2 °F 91% 30.04 in 10.0 mi NW 10.4 mph - N/A   Clear
8:15 AM 39.4 °F 31.4 °F 36.0 °F 88% 30.05 in 10.0 mi NW 13.8 mph - N/A   Clear
8:35 AM 41.2 °F 34.5 °F 36.7 °F 84% 30.06 in 10.0 mi NNW 11.5 mph 16.1 mph N/A   Clear
8:55 AM 42.1 °F 34.9 °F 36.7 °F 81% 30.06 in 10.0 mi NNW 13.8 mph 18.4 mph N/A   Clear
9:15 AM 41.2 °F 34.5 °F 35.8 °F 81% 30.07 in 10.0 mi North 11.5 mph 17.3 mph N/A   Scattered Clouds
9:35 AM 40.1 °F 31.6 °F 35.8 °F 85% 30.08 in 10.0 mi NW 16.1 mph - N/A   Overcast
9:55 AM 39.7 °F 33.2 °F 35.8 °F 86% 30.09 in 10.0 mi NNW 10.4 mph 17.3 mph N/A   Overcast
10:15 AM 41.0 °F 32.5 °F 35.8 °F 82% 30.10 in 10.0 mi NW 17.3 mph 20.7 mph N/A   Overcast
10:35 AM 41.7 °F 33.7 °F 35.8 °F 79% 30.11 in 10.0 mi NW 16.1 mph - N/A   Overcast
10:55 AM 41.7 °F 36.1 °F 35.8 °F 79% 30.11 in 10.0 mi NNW 9.2 mph 19.6 mph N/A   Overcast
11:15 AM 43.0 °F 36.0 °F 36.0 °F 76% 30.12 in 10.0 mi NW 13.8 mph - N/A   Overcast
11:35 AM 42.4 °F 35.0 °F 35.6 °F 77% 30.13 in 10.0 mi NW 15.0 mph - N/A   Overcast
11:55 AM 43.0 °F 34.5 °F 35.6 °F 75% 30.13 in 10.0 mi NW 19.6 mph 23.0 mph N/A   Overcast
12:15 PM 44.2 °F 36.7 °F 35.4 °F 71% 30.13 in 10.0 mi NW 17.3 mph 23.0 mph N/A   Mostly Cloudy
12:35 PM 48.0 °F - 35.8 °F 63% 30.12 in 10.0 mi NNW 12.7 mph 20.7 mph N/A   Scattered Clouds
12:55 PM 48.9 °F - 34.5 °F 58% 30.12 in 10.0 mi NNW 16.1 mph 20.7 mph N/A   Clear
1:15 PM 51.1 °F - 32.7 °F 50% 30.11 in 10.0 mi NW 11.5 mph 23.0 mph N/A   Clear
1:35 PM 53.8 °F - 30.6 °F 41% 30.10 in 10.0 mi NW 10.4 mph 20.7 mph N/A   Clear
1:55 PM 54.3 °F - 30.0 °F 39% 30.09 in 10.0 mi NNW 13.8 mph 19.6 mph N/A   Clear
2:15 PM 55.6 °F - 27.9 °F 35% 30.09 in 10.0 mi NNW 12.7 mph 26.5 mph N/A   Clear
2:35 PM 56.7 °F - 27.7 °F 33% 30.08 in 10.0 mi NNW 12.7 mph 19.6 mph N/A   Clear
2:55 PM 57.4 °F - 25.5 °F 29% 30.08 in 10.0 mi North 13.8 mph 21.9 mph N/A   Clear
3:15 PM 57.7 °F - 25.3 °F 29% 30.07 in 10.0 mi NNW 12.7 mph 24.2 mph N/A   Clear
3:35 PM 58.3 °F - 25.0 °F 28% 30.07 in 10.0 mi NW 18.4 mph 26.5 mph N/A   Clear
3:55 PM 58.5 °F - 23.7 °F 26% 30.07 in 10.0 mi NNW 16.1 mph 24.2 mph N/A   Clear
4:15 PM 58.5 °F - 24.3 °F 27% 30.06 in 10.0 mi WNW 16.1 mph 25.3 mph N/A   Clear
4:35 PM 58.3 °F - 24.4 °F 27% 30.06 in 10.0 mi NW 13.8 mph 24.2 mph N/A   Clear
4:55 PM 57.7 °F - 25.3 °F 29% 30.06 in 10.0 mi WNW 15.0 mph 19.6 mph N/A   Clear
5:15 PM 58.1 °F - 25.5 °F 29% 30.06 in 10.0 mi NNW 9.2 mph - N/A   Clear
5:35 PM 58.1 °F - 24.4 °F 27% 30.06 in 10.0 mi WNW 16.1 mph 19.6 mph N/A   Clear
5:55 PM 58.5 °F - 24.3 °F 27% 30.06 in 10.0 mi NNW 12.7 mph 19.6 mph N/A   Clear
6:15 PM 57.7 °F - 22.8 °F 26% 30.06 in 10.0 mi NW 15.0 mph 20.7 mph N/A   Clear
6:35 PM 57.2 °F - 23.4 °F 27% 30.06 in 10.0 mi NW 16.1 mph 20.7 mph N/A   Clear
6:55 PM 56.1 °F - 23.5 °F 28% 30.06 in 10.0 mi NW 13.8 mph - N/A   Clear
7:15 PM 54.5 °F - 23.7 °F 30% 30.07 in 10.0 mi NW 11.5 mph - N/A   Clear
7:35 PM 54.0 °F - 24.3 °F 32% 30.07 in 10.0 mi NW 8.1 mph - N/A   Clear
7:55 PM 51.8 °F - 23.9 °F 34% 30.07 in 10.0 mi NNW 5.8 mph - N/A   Clear
8:15 PM 51.6 °F - 23.9 °F 34% 30.07 in 10.0 mi Calm Calm - N/A   Clear
8:35 PM 47.5 °F - 23.0 °F 38% 30.07 in 10.0 mi Calm Calm - N/A   Clear
8:55 PM 43.9 °F - 25.3 °F 48% 30.07 in 10.0 mi Calm Calm - N/A   Clear
9:15 PM 43.9 °F - 25.2 °F 48% 30.08 in 10.0 mi Calm Calm - N/A   Clear
9:35 PM 46.0 °F - 25.5 °F 45% 30.07 in 10.0 mi Calm Calm - N/A   Clear
9:55 PM 44.6 °F - 26.1 °F 48% 30.07 in 10.0 mi Calm Calm - N/A   Clear
10:15 PM 42.6 °F - 28.8 °F 58% 30.07 in 10.0 mi Calm Calm - N/A   Clear
10:35 PM 42.6 °F - 29.7 °F 60% 30.06 in 10.0 mi Calm Calm - N/A   Clear
10:55 PM 41.2 °F - 31.1 °F 67% 30.06 in 10.0 mi Calm Calm - N/A   Clear
11:15 PM 41.0 °F - 31.8 °F 70% 30.05 in 10.0 mi Calm Calm - N/A   Clear
11:35 PM 39.7 °F - 32.4 °F 75% 30.05 in 10.0 mi Calm Calm - N/A   Clear
11:55 PM 40.1 °F - 30.7 °F 69% 30.05 in 10.0 mi Calm Calm - N/A   Clear